Weather History for Iliamna, AK

Change the Weather History Date:

Thursday, October 27, 2011

  Actual Average Record
Temperature  
Mean Temperature 39 °F -  
Max Temperature 44 °F 33 °F 50 °F (2013)
Min Temperature 35 °F 19 °F -2 °F (1976)
Degree Days  
Heating Degree Days 26    
Moisture  
Dew Point 32 °F    
Average Humidity 73    
Maximum Humidity 87    
Minimum Humidity 60    
Precipitation  
Precipitation 0.00 in - - ()
Sea Level Pressure  
Sea Level Pressure 29.45 in    
Wind  
Wind Speed 9 mph (ESE)    
Max Wind Speed 13 mph    
Max Gust Speed 21 mph    
Visibility 10 miles    
Events Rain    
Averages and records for this station are not official NWS values.
T = Trace of Precipitation, MM = Missing Value Source: NWS Daily Summary

Daily Weather History Graph

Daily Weather History Graph

Search for Another Location

Airport:

Trip Planner

Search our weather history database for the weather conditions in past years. The results will help you decide how hot, cold, wet, or windy it might be!

Date:

Astronomy

Oct. 27, 2011 Rise Set
Actual Time 9:28 AM AKDT 6:37 PM AKDT
Civil Twilight 8:44 AM AKDT 7:21 PM AKDT
Nautical Twilight 7:55 AM AKDT 8:09 PM AKDT
Astronomical Twilight 7:08 AM AKDT 8:57 PM AKDT
Moon 11:23 AM AKDT (10/27) 6:33 PM AKDT (10/27)
Length of Visible Light 10h 37m
Length of Day
9h 09m
New Moon, 2% of the Moon is Illuminated
Oct 27
New Moon
Nov 2
First Quarter
Nov 10
Full
Nov 18
Last Quarter
Nov 24
New

Hourly Weather History & Observations

Time (AKDT) Temp. Windchill Dew Point Humidity Pressure Visibility Wind Dir Wind Speed Gust Speed Precip Events Conditions
12:53 AM 35.1 °F 27.9 °F 26.1 °F 70% 29.45 in 10.0 mi NNE 9.2 mph - N/A   Overcast
1:53 AM 36.0 °F 29.0 °F 27.0 °F 70% 29.45 in 10.0 mi NNE 9.2 mph - N/A   Overcast
2:53 AM 37.4 °F 29.3 °F 30.2 °F 75% 29.45 in 10.0 mi NE 12.7 mph - N/A   Overcast
3:53 AM 35.1 °F 29.3 °F 27.0 °F 72% 29.46 in 10.0 mi North 6.9 mph - N/A   Overcast
4:53 AM 39.9 °F 32.5 °F 30.9 °F 70% 29.46 in 10.0 mi ENE 12.7 mph 20.7 mph N/A   Overcast
5:53 AM 39.9 °F 32.5 °F 30.9 °F 70% 29.46 in 10.0 mi ENE 12.7 mph - N/A   Overcast
6:53 AM 39.9 °F 32.9 °F 32.0 °F 73% 29.46 in 10.0 mi East 11.5 mph 19.6 mph N/A   Overcast
7:53 AM 39.9 °F 33.4 °F 32.0 °F 73% 29.47 in 10.0 mi East 10.4 mph - N/A   Scattered Clouds
8:53 AM 39.9 °F 32.9 °F 30.9 °F 70% 29.47 in 10.0 mi East 11.5 mph - N/A   Overcast
9:53 AM 39.9 °F 33.4 °F 30.9 °F 70% 29.48 in 10.0 mi East 10.4 mph - N/A   Mostly Cloudy
10:53 AM 42.1 °F 36.6 °F 30.9 °F 65% 29.47 in 10.0 mi East 9.2 mph - N/A   Scattered Clouds
11:53 AM 43.0 °F 37.2 °F 30.0 °F 60% 29.48 in 10.0 mi East 10.4 mph - N/A   Partly Cloudy
12:53 PM 43.0 °F 37.2 °F 30.0 °F 60% 29.49 in 10.0 mi East 10.4 mph - N/A   Overcast
2:53 PM 43.0 °F 38.2 °F 30.9 °F 62% 29.47 in - ESE 8.1 mph - N/A   Unknown
3:53 PM 43.0 °F 38.2 °F 30.9 °F 62% 29.47 in 10.0 mi ESE 8.1 mph - N/A   Overcast
4:53 PM 43.0 °F 37.2 °F 30.9 °F 62% 29.46 in 10.0 mi SSE 10.4 mph - 0.00 in   Overcast
5:53 PM 42.1 °F 37.1 °F 33.1 °F 70% 29.45 in 10.0 mi SE 8.1 mph - 0.00 in   Overcast
6:53 PM 39.9 °F 33.9 °F 33.1 °F 77% 29.45 in 10.0 mi SE 9.2 mph - 0.00 in Rain Light Rain
7:53 PM 39.0 °F 35.7 °F 34.0 °F 82% 29.44 in 10.0 mi East 4.6 mph - 0.00 in Rain Light Rain
8:37 PM 39.2 °F - 33.8 °F 81% 29.44 in 10.0 mi Calm Calm - 0.00 in Rain Light Rain
8:53 PM 39.9 °F 35.8 °F 33.1 °F 77% 29.44 in 10.0 mi South 5.8 mph - 0.00 in Rain Light Rain
9:15 PM 39.2 °F 37.0 °F 33.8 °F 81% 29.43 in 10.0 mi SSE 3.5 mph - 0.00 in Rain Light Rain
9:24 PM 39.2 °F 35.9 °F 33.8 °F 81% 29.43 in 10.0 mi SSE 4.6 mph - 0.00 in Rain Light Rain
9:53 PM 39.0 °F 34.0 °F 33.1 °F 79% 29.43 in 10.0 mi SE 6.9 mph - 0.00 in Rain Light Rain
10:53 PM 37.9 °F 35.5 °F 34.0 °F 86% 29.43 in 10.0 mi SE 3.5 mph - 0.00 in   Overcast
11:04 PM 37.4 °F 34.9 °F 33.8 °F 87% 29.42 in 10.0 mi SE 3.5 mph - N/A   Overcast
11:50 PM 37.4 °F 33.8 °F 33.8 °F 87% 29.40 in 10.0 mi SSE 4.6 mph - 0.00 in   Overcast
11:53 PM 37.9 °F 35.5 °F 33.1 °F 83% 29.41 in 10.0 mi SSE 3.5 mph - 0.00 in   Overcast